Weather in Solonovka

Russia / Altai Krai     52°00′17″N   84°37′34″E
temp.,
°C
wind,
m/s
gust,
m/s
humid.,
%
clouds,
%
prec.,
mm/h
press.,
hPa
HPBL,
m
10 august, wed
wed1001:00+16sw337694 0.3 100841
04:00+16s327871 0.0 100736
07:00+16s227631 0.1 100842
10:00+24n104816 0.0 1009681
13:00+27nne333637 0.0 10082262
16:00+23ene235212 0.2 1008129
19:00+25ese235089 0.2 1008429
22:00+20se236832 0.1 100963
11 august, thu
thu1101:00+16s33843 0.3 100845
04:00+14wsw229151 0.3 100924
07:00+15s338497 0.3 100850
10:00+25n014890 0.0 1008477
13:00+29n333216 0.0 10072061
16:00+19ese367992 1.8 1008212
19:00+22sse3455100 2.0 1008276
22:00+15ssw22833 0.0 100928
12 august, fri
fri1201:00+14s228216 0.0 100929
04:00+13s228349 0.0 100914
07:00+13ssw22829 0.1 101045
10:00+22nnw225136 0.0 1011762
13:00+25n324346 0.0 10101434
16:00+27n323612 0.0 10092231
19:00+24ne344799 0.0 1008821
22:00+17s328352 0.8 101037
13 august, sat
sat1301:00+15s22881 0.8 101019
04:00+14ssw22900 0.0 101014
07:00+15s22863 0.0 101036
10:00+23wnw21554 0.0 1010596
13:00+27nnw343448 0.2 10092483
16:00+26wsw1438100 0.1 10071567
19:00+22sse2250100 0.1 100844
22:00+18sw335950 0.0 100942
14 august, sun
sun1401:00+15wsw3493100 1.7 101077
04:00+13ssw339231 0.6 100947
07:00+14ssw34908 0.6 101081
10:00+21sw794341 0.0 10091609
13:00+22wsw7103634 0.0 10082164
16:00+22w7123961 0.0 10081992
19:00+21sw5104579 0.0 10081169
22:00+16sw41171100 0.2 1009282